Regional Weather Roundup
Issued by NWS

Home | Current Version | Previous Version | Graphics & Text | Print | Product List | Glossary On
Versions: 1 2 3 4 5 6 7 8 9 10 11 12 13 14 15 16 17 18 19 20 21 22 23 24 25 26 27 28 29 30 31 32 33 34 35 36 37 38 39 40 41 42 43 44 45 46 47 48 49 50
335
ASUS44 KJAN 172210
RWRMS

MISSISSIPPI HOURLY WEATHER ROUNDUP
NATIONAL WEATHER SERVICE JACKSON MS
500 PM CDT FRI APR 17 2015

NOTE: "FAIR: INDICATES FEW OR NO CLOUDS BELOW 12,000 FEET WITH NO
SIGNIFICANT WEATHER AND/OR OBSTRUCTIONS TO VISIBILITY.

MSZ001>002-007>008-010>013-018>021-025>028-034>036-172300-
NORTHWEST MISSISSIPPI

CITY           SKY/WX    TMP DP  RH WIND       PRES   REMARKS
CLARKSDALE     FAIR      75  63  64 CALM      29.98S
GREENWOOD      MOSUNNY   73  62  68 E10       29.94S
GREENVILLE     MOSUNNY   76  61  59 N10       29.95F
OLIVE BRANCH   PTSUNNY   70  68  94 NE7       29.98S
OXFORD         PTSUNNY   70  63  78 NE8       29.99R
TUNICA         PTCLDY    72  63  73 N8        29.98R
$$

MSZ003>006-009-014>017-022>024-029>033-037>039-172300-
NORTHEAST MISSISSIPPI

CITY           SKY/WX    TMP DP  RH WIND       PRES   REMARKS
COLUMBUS AFB   PTSUNNY   67  64  89 SE8       29.97F
CORINTH        CLOUDY    68  61  77 CALM      29.98F
GOLDN TRIANGLE PTSUNNY   66  63  88 E6        29.97F
STARKVILLE     CLOUDY    68  63  83 SE8       29.96F
TUPELO         CLOUDY    68  62  81 E8        29.97F
$$

MSZ040-058-172300-
CENTRAL MISSISSIPPI

CITY           SKY/WX    TMP DP  RH WIND       PRES   REMARKS
JACKSON INTL   PTSUNNY   77  65  66 N5        29.93F
JACKSON HAWKNS MOSUNNY   77  64  64 NW7       29.93F
MERIDIAN KEY   CLOUDY    72  65  78 NE12      29.94S
MERIDIAN NAS   CLOUDY    70  63  78 NE9       29.96S
RAYMOND        FAIR      77  72  83 NW7G14    29.93F
VICKSBURG      SUNNY     75  63  66 NE10      29.94F
$$

MSZ059>079-172300-
SOUTH MISSISSIPPI

CITY           SKY/WX    TMP DP  RH WIND       PRES   REMARKS
BROOKHAVEN     FAIR      84  73  70 W9        29.92F HX  91
HATTIESBURG    MOSUNNY   85  65  51 W9        29.90S
MCCOMB         MOSUNNY   82  66  58 W10       29.90F
NATCHEZ        MOSUNNY   81  64  57 NW7       29.92F
PINE BELT      MOSUNNY   82  64  54 NW7       29.92R
$$

MSZ080>082-172300-
COASTAL MISSISSIPPI

CITY           SKY/WX    TMP DP  RH WIND       PRES   REMARKS
BAY ST LOUIS   MOSUNNY   82  66  57 MISG      29.90F
BILOXI         SUNNY     80  73  79 SW15      29.90S
PASCAGOULA     MOSUNNY   81  71  71 VRB6      29.91S
GULFPORT       MOSUNNY   81  72  74 S8        29.89F
$$



USA.gov is the U.S. government's official web portal to all federal, state and local government web resources and services.